Pelham, NH (03076)

5:11 AM EST on February 10, 2016 (GMT -0500)
Independence Dr | | Change Station
CLOSE
Current Station
Personal Weather Station
Location: Pelham, NH
Elevation: 180 ft
Nearby Weather Stations

Elev 180 ft 42.74 °N, 71.34 °W | Updated 1 second ago

Overcast
Overcast
12.5 °F
Feels Like 13 °F
N
0.0
Wind Variable Wind from NW
Gusts 2.0 mph

Today
High -- | Low -- °F
--% Chance of Precip.
Yesterday
High -- | Low -- °F
Precip. -- in
Pressure 30.41 in
Visibility 10.0 miles
Clouds Few 3400 ft
Scattered Clouds 6000 ft
Windchill 13 °F
Dew Point 10 °F
Humidity 91%
Rainfall 0.00 in
Snow Depth Not available.
6:49 AM 5:09 PM
Waxing Crescent, 4% visible
METAR KASH 100955Z 00000KT 10SM FEW034 SCT060 M10/M12 A2960 RMK AO2 SLP296 PWINO FZRANO RVRNO
Pressure 30.41 in
Visibility 10.0 miles
Clouds Few 3400 ft
Scattered Clouds 6000 ft
Windchill 13 °F
Dew Point 10 °F
Humidity 91%
Rainfall 0.00 in
Snow Depth Not available.
6:49 AM 5:09 PM
Waxing Crescent, 4% visible
METAR KASH 100955Z 00000KT 10SM FEW034 SCT060 M10/M12 A2960 RMK AO2 SLP296 PWINO FZRANO RVRNO

10-Day Weather Forecast

Almanac

Astronomy

Feb. 10, 2016 Rise Set
Actual Time
Civil Twilight
Nautical Twilight
Astronomical Twilight
Moon
Length of Visible Light
Length of Day
Tomorrow will be .
, % of the Moon is Illuminated

Today's Extremes

State Highs State Lows

Community

WunderPhotos

Upload Photos

1,891,830 photos uploaded!

WunderBlog® & News

Nearby

Air Quality

  Air Quality AQ Index Pollutant
Not available.

Snow Depth

Station Depth Elevation

Earthquake Activity

City Distance Mag. Time & Date
Minimum magnitude displayed is 2.5.

Coastal Water Temperatures

Place Temperature

Stations

Nearby Weather Stations

Station Location Temp. Windchill Dew Point Humidity Wind Precip. Elev Updated Type
                   

Watches & Warnings

There are currently no watches in effect.